Regional Weather Roundup
Issued by NWS Sioux Falls, SD

Home | Current Version | Previous Version | Graphics & Text | Print | Product List | Glossary On
Versions: 1 2 3 4 5 6 7 8 9 10 11 12 13 14 15 16 17 18 19 20 21 22 23 24 25 26 27 28 29 30 31 32 33 34 35 36 37 38 39 40 41 42 43 44 45 46 47 48 49 50
000
ASUS43 KFSD 251502
RWRFSD

WEATHER ROUNDUP FOR SE SOUTH DAKOTA/SW MINNESOTA/NW IOWA
NATIONAL WEATHER SERVICE SIOUX FALLS SD
1000 AM CDT SAT MAR 25 2017

NOTE: "FAIR" INDICATES FEW OR NO CLOUDS BELOW 12,000 FEET WITH NO
SIGNIFICANT WEATHER AND OR OBSTRUCTIONS TO VISIBILITY.


SDZ038>040-050-052>070-251600-
SOUTHEAST SOUTH DAKOTA

CITY           SKY/WX    TMP DP  RH WIND       PRES   REMARKS
BROOKINGS      CLOUDY    33  32  96 E10       30.12F WCI  25
CHAMBERLAIN    CLOUDY    35  33  96 E8        30.11F WCI  28
HURON          CLOUDY    34  31  88 E9        30.13F WCI  27
MADISON        FOG       32  32 100 E14       30.12F VSB 1   WCI  22
MITCHELL       CLOUDY    34  32  92 E8        30.14F WCI  27
SIOUX FALLS    CLOUDY    38  35  89 NE15      30.10F
WINNER         CLOUDY    34  32  92 SE18      30.07F FOG     WCI  23
YANKTON        CLOUDY    37  34  87 NE13      30.10S
$$

MNZ071-072-080-081-089-090-097-098-251600-
SOUTHWEST MINNESOTA

CITY           SKY/WX    TMP DP  RH WIND       PRES   REMARKS
FAIRMONT       CLOUDY    37  34  89 NE18      30.09F
JACKSON        CLOUDY    36  34  93 NE16G23   30.09S FOG
MARSHALL       CLOUDY    35  34  96 E13       30.15F FOG     WCI  26
MONTEVIDEO     CLOUDY    36  34  93 E10       30.19S
PIPESTONE      CLOUDY    36  32  87 E10       30.09F FOG
REDWOOD FALLS  CLOUDY    37  32  82 NE6       30.15F
TRACY          CLOUDY    36  36 100 NE12      30.13F FOG
WINDOM         CLOUDY    36  36 100 NE12G18   30.10F FOG
WORTHINGTON    CLOUDY    35  34  96 NE17      30.08F FOG     WCI  25
$$

IAZ001>003-012>014-020>022-031-032-NEZ013-014-SDZ071-251600-
NORTHWEST IOWA

CITY           SKY/WX    TMP DP  RH WIND       PRES   REMARKS
CHEROKEE       CLOUDY    37  37  98 NE9       30.05S FOG
ESTHERVILLE    CLOUDY    36  35  96 NE21      30.06F
LE MARS        CLOUDY    37  36  93 NE16      30.07F
ORANGE CITY    CLOUDY    36  36 100 NE10      30.07S FOG
SHELDON        CLOUDY    36  36 100 NE18      30.06S FOG
SIOUX CITY     CLOUDY    39  37  92 NE13      30.06F
SPENCER        CLOUDY    37  35  92 NE17      30.05F
STORM LAKE     FOG       36  36 100 NE22G31   30.02S VSB 1/2
$$

ABBREVIATIONS USED IN REMARKS
   TC - TEMPERATURE IN CELSIUS
  WCI - WIND CHILL INDEX
   HX - HEAT INDEX
  VSB - VISIBILITY





USA.gov is the U.S. government's official web portal to all federal, state and local government web resources and services.